Terminal Aerodrome Forecast
Issued by NWS Tampa Bay Area, FL

Home | Current Version | Previous Version | Text Only | Print | Product List | Glossary On
Versions: 1 2 3 4 5 6 7 8 9 10 11 12 13
000
FTUS42 KTBW 210500
TAFSRQ
TAF
KSRQ 210540Z 2106/2206 VRB04KT P6SM SCT060 BKN250
     FM211800 26007KT P6SM FEW040 SCT100 BKN250
     FM220000 VRB03KT P6SM FEW100 BKN250=

USA.gov is the U.S. government's official web portal to all federal, state and local government web resources and services.